Location: Betpouey
(42.8833°N, 0.0333°E)
Time: 18:43:16
(UTC+00:00)

Daily predictions for brighter satellites

Satellite Brightness Start Highest point End
(mag) Time Altitude Azimuth Time Altitude Azimuth Time Altitude Azimuth
Cosmos 2297 3.7 16:49:08 10° NNW 16:54:49 66° ENE 17:00:29 10° SE
SL-16 R/B 2.2 16:51:15 10° SSW 16:56:54 80° ESE 17:02:35 10° NNE
CZ-4B R/B 3.0 16:57:33 10° NE 16:59:32 16° E 17:01:32 10° SE
Landsat 5 3.7 16:56:20 10° NNE 17:00:50 78° ESE 17:05:21 10° S
BREEZE-M DEB (TANK) 1.8 16:58:10 10° WSW 17:01:26 81° NNW 17:03:23 10° ENE
SMAP 3.2 17:00:21 10° SSE 17:04:51 52° ENE 17:09:22 10° N
USA 215 4.5 17:00:12 10° ENE 17:05:21 24° SE 17:10:29 10° S
Sich 1 3.3 17:04:32 10° NNW 17:08:55 76° W 17:13:12 10° S
Cosmos 1151 Rocket 3.1 17:07:02 10° S 17:11:11 54° E 17:15:21 10° NNE
CZ-4C R/B 3.4 17:08:12 10° N 17:11:49 69° WNW 17:15:23 10° SSW
Cosmos 1470 Rocket 4.1 17:09:49 10° N 17:13:46 34° ENE 17:17:42 10° SE
Cosmos 1515 Rocket 4.2 17:15:20 10° SSE 17:19:15 33° E 17:23:14 10° NNE
CZ-2C R/B 4.3 17:17:43 10° ESE 17:20:55 17° ENE 17:24:01 10° NNE
Cosmos 482 Debris 2.7 17:20:51 10° NW 17:22:35 44° NNE 17:23:46 18° E
SL-8 Rocket 4.0 17:16:44 10° N 17:23:01 77° E 17:29:18 10° SSE
Cosmos 2341 Rocket 4.2 17:18:15 10° N 17:24:34 81° W 17:30:55 10° S
Radarsat Rocket 4.4 17:20:34 10° SSE 17:26:39 77° WSW 17:33:32 10° NNW
COSMO-SKYMED 1 3.5 17:23:32 10° NE 17:27:16 27° E 17:30:58 10° SSE
X-37B 0.5 17:24:07 10° WSW 17:27:18 86° SSE 17:29:28 19° ENE
Cosmos 1689 Rocket 4.3 17:29:01 11° ESE 17:29:01 11° ESE 17:29:31 10° ESE
USA 281 4.1 17:23:08 10° ESE 17:28:19 26° NE 17:33:31 10° N
Cosmos 2228 Rocket 4.2 17:28:23 10° SE 17:31:56 23° E 17:34:29 15° NE
CORIOLIS 4.1 17:26:45 10° SSE 17:32:10 82° ENE 17:37:38 10° NNW
USA 81 4.0 17:27:17 10° N 17:32:36 79° E 17:37:53 10° S
Meteor 1-4 Rocket 2.4 17:29:35 10° S 17:33:08 66° E 17:36:40 10° NNE
Cosmos 2285 Rocket 4.1 17:28:39 10° NNW 17:35:04 83° WSW 17:41:23 10° SSE
Cosmos 1812 3.9 17:32:50 10° SE 17:35:46 21° E 17:36:35 20° ENE
H-2A R/B 3.4 17:35:17 17° ENE 17:35:49 17° ENE 17:39:04 10° NNE
Cosmos 1939 Rocket 3.3 17:34:29 10° SE 17:38:05 37° ENE 17:41:44 10° N
USA 267 4.2 17:34:10 15° ENE 17:38:28 31° NNE 17:44:01 10° NW
Cosmos 1328 Rocket 3.6 17:34:47 10° S 17:39:06 83° W 17:43:28 10° N
CZ-4 R/B 2.8 17:41:26 19° NE 17:41:26 19° NE 17:43:29 10° NNE
BREEZE-M DEB (TANK) 3.6 17:37:48 10° SSW 17:41:28 25° SSE 17:42:53 18° ESE
Cosmos 44 Rocket 4.3 17:38:24 10° NNW 17:42:50 28° NE 17:45:09 20° E
Cosmos 1933 Rocket 3.7 17:39:33 10° N 17:43:54 49° ENE 17:48:13 10° SSE
IRS-1C Rocket 4.4 17:39:31 10° SE 17:44:29 43° ENE 17:49:27 10° N
Cosmos 1602 3.6 17:42:32 10° N 17:46:28 83° E 17:50:20 10° S
Cosmos 2181 Rocket 4.3 17:40:36 10° SSW 17:47:00 72° W 17:53:21 10° N
H-2A R/B 4.4 17:43:24 10° SSW 17:47:16 34° W 17:51:01 10° NNW
Lacrosse 4 Rocket 3.3 17:45:50 10° SE 17:46:58 13° ESE 17:46:58 13° ESE
NOAA 11 4.1 17:42:45 10° SSE 17:48:10 86° ENE 17:53:39 10° NNW
Cosmos 1680 Rocket 4.4 17:44:06 10° SSE 17:48:31 28° E 17:50:18 23° ENE
Cosmos 2237 Rocket 4.5 17:44:49 10° W 17:48:34 18° NW 17:52:21 10° N
CZ-4B R/B 3.7 17:44:14 10° S 17:49:28 60° WSW 17:54:43 10° NNW
SL-24 R/B 4.1 17:49:33 23° NE 17:51:24 39° E 17:54:49 10° SSE
Cosmos 1603 3.7 17:47:00 10° S 17:52:30 60° ESE 17:56:56 16° NE
CZ-2D R/B 3.6 17:51:21 10° SE 17:54:55 40° ENE 17:58:33 10° N
Cosmos 1943 3.3 17:50:23 10° S 17:55:53 56° ESE 17:59:58 18° NE
Cosmos 1538 Rocket 4.1 17:52:40 10° SSW 17:58:02 81° WNW 18:03:27 10° NNE
H-2A R/B 3.7 17:55:14 10° N 17:59:02 33° WNW 18:02:52 10° SW
Cosmos 2369 Rocket 2.1 17:53:51 10° NNW 17:59:34 78° ENE 18:05:12 10° SSE
Cosmos 1943 Rocket 2.6 17:55:17 10° NNW 18:00:47 64° WSW 18:06:18 10° S
Cosmos 1782 3.2 17:57:36 10° SSW 18:01:31 62° W 18:05:29 10° N
Okean O Rocket 2.8 17:57:31 10° S 18:01:41 45° W 18:05:54 10° NNW
Meteor 1-14 Rocket 4.3 17:56:02 10° N 18:02:03 86° E 18:08:03 10° S
Meteor 1-5 Rocket 4.4 17:56:22 10° N 18:02:08 53° ENE 18:07:42 10° SSE
Cosmos 1461 4.2 17:58:56 10° SSE 18:02:41 26° ESE 18:02:44 26° ESE
Okean-O 3.1 17:59:14 10° SE 18:03:19 38° ENE 18:07:24 10° N
CENTAUR R/B 3.1 18:00:53 10° S 18:05:57 34° ESE 18:07:44 29° E
ISS -2.0 18:03:31 10° NW 18:05:55 20° N 18:05:55 20° N
SL-08 R/B 4.4 18:06:57 10° N 18:13:07 88° WSW 18:19:13 10° S
ERS-2 2.6 18:10:45 14° N 18:13:47 61° WNW 18:17:23 10° SSW
NOSS 3-2 (C) 3.8 18:09:01 10° S 18:14:01 37° ESE 18:15:09 34° E
SKYMED 2 3.5 18:11:44 14° NNE 18:15:30 89° WNW 18:19:50 10° SSW
Cosmos 1869 Rocket 4.0 18:14:18 10° N 18:22:43 11° SSE 18:22:57 10° SSE
BREEZE-M DEB (TANK) 3.3 18:09:15 10° SW 18:18:55 75° SSE 18:19:59 48° ENE
Meteor 1-27 Rocket 4.1 18:15:15 10° SSE 18:20:11 38° E 18:20:11 38° E
Meteor 1-10 Rocket 4.1 18:19:04 10° S 18:24:40 70° E 18:28:49 18° NNE
Lacrosse 5 rocket 3.4 18:23:23 10° NW 18:25:18 14° NNW 18:25:53 13° N
BREEZE-M DEB (TANK) 4.4 18:25:58 10° NW 18:26:37 16° NW 18:26:37 16° NW
FALCON 9 R/B 3.0 18:27:30 10° SW 18:28:30 15° SSW 18:28:30 15° SSW
CZ-4B R/B 3.5 18:29:34 12° NNW 18:31:45 24° WNW 18:34:21 10° SW
NOSS 3-2 (A) 3.2 18:33:34 10° SW 18:39:10 88° NW 18:41:27 41° NE
SL-16 R/B 4.5 18:37:51 10° W 18:41:43 18° NW 18:45:36 10° N
Cosmos 1500 4.1 18:38:44 10° NNW 18:42:26 47° W 18:46:07 10° SSW
YAOGAN 1 3.8 18:46:29 31° NNW 18:46:29 31° NNW 18:48:47 10° NNW
Cosmos 2239 Rocket 4.4 18:39:07 10° N 18:45:19 86° W 18:51:32 10° S
Cosmos 1535 Rocket 4.3 18:40:07 10° N 18:46:11 63° E 18:52:15 10° SSE
USA 215 3.1 18:46:42 46° NE 18:48:53 89° SE 18:55:27 10° SW
Cosmos 1656 Rocket 3.9 18:49:00 10° NNW 18:54:36 69° WSW 18:58:58 16° S
MOS 1 Rocket 3.7 18:52:44 34° N 18:55:14 79° WNW 19:00:33 10° SSW
USA 238 DEB 3.6 18:51:56 10° SW 18:58:30 78° NW 19:00:35 48° NNE
USA 238 3.6 18:52:01 10° SW 18:58:36 78° NW 19:00:39 48° NNE
CZ-2C R/B 3.4 18:55:27 10° S 19:00:23 58° W 19:05:09 10° NNW
COSMO-SKYMED 1 4.5 19:00:19 13° NNW 19:03:22 28° WNW 19:07:03 10° SW
X-37B 3.6 19:00:55 10° W 19:01:44 16° WNW 19:01:44 16° WNW
Cosmos 1238 Rocket 4.1 19:01:31 10° NNW 19:05:29 46° W 19:10:16 10° SSW
Cosmos 1934 Rocket 4.0 19:01:48 10° N 19:08:11 84° W 19:14:28 10° S
CSL-04 Debris 4.3 19:09:14 65° NNW 19:09:14 65° NNW 19:13:54 10° NNW
USA 281 3.3 19:05:43 10° SSE 19:12:15 72° WSW 19:18:50 10° NNW
H-2A R/B 2.7 19:15:56 50° NW 19:15:56 50° NW 19:19:51 10° NNW
CZ-4 R/B 3.7 19:17:28 19° NW 19:17:28 19° NW 19:18:58 10° NNW
USA 267 3.4 19:21:32 60° N 19:21:32 60° N 19:27:13 10° NW
Cosmos 44 Rocket 4.3 19:19:37 10° NW 19:23:56 47° W 19:23:56 47° W
Meteor 1-11 Rocket 4.5 19:19:32 10° NNW 19:25:10 53° W 19:30:52 10° S
Lacrosse 4 Rocket 3.8 19:22:13 10° SW 19:23:20 18° SW 19:23:20 18° SW
CENTAUR R/B 3.5 19:50:33 10° WSW 19:54:58 42° W 19:54:58 42° W
